Time,TemperatureF,DewpointF,PressureIn,WindDirection,WindDirectionDegrees,WindSpeedMPH,WindSpeedGustMPH,Humidity,HourlyPrecipIn,Conditions,Clouds,dailyrainin,SoftwareType,DateUTC
2013-02-27 00:00:00,39.2,37.6,29.82,WNW,296,0.0,17.0,94,0.00,,,0.00,Wunderground v.1.15,2013-02-27 06:00:00,
2013-02-27 00:05:00,39.2,37.6,29.82,WNW,296,0.0,17.0,94,0.00,,,0.00,Wunderground v.1.15,2013-02-27 06:05:00,
2013-02-27 00:10:00,39.1,37.5,29.82,WNW,296,0.0,0.0,94,0.00,,,0.00,Wunderground v.1.15,2013-02-27 06:10:00,
2013-02-27 00:15:00,39.0,37.1,29.82,WNW,296,0.0,0.0,93,0.00,,,0.00,Wunderground v.1.15,2013-02-27 06:15:00,
2013-02-27 00:20:00,38.9,37.3,29.82,WNW,296,0.0,0.0,94,0.00,,,0.00,Wunderground v.1.15,2013-02-27 06:20:00,
2013-02-27 00:25:00,38.8,36.9,29.82,WNW,296,0.0,0.0,93,0.00,,,0.00,Wunderground v.1.15,2013-02-27 06:25:00,
2013-02-27 00:30:00,38.6,37.0,29.82,WNW,296,0.0,0.0,94,0.00,,,0.00,Wunderground v.1.15,2013-02-27 06:30:00,
2013-02-27 00:35:00,38.6,37.0,29.83,WNW,296,0.0,0.0,94,0.00,,,0.00,Wunderground v.1.15,2013-02-27 06:35:00,
2013-02-27 00:40:00,38.6,37.0,29.83,WNW,296,0.0,0.0,94,0.00,,,0.00,Wunderground v.1.15,2013-02-27 06:40:00,
2013-02-27 00:45:00,38.7,37.1,29.83,WNW,296,0.0,0.0,94,0.00,,,0.00,Wunderground v.1.15,2013-02-27 06:45:00,
2013-02-27 00:50:00,38.7,37.1,29.83,WNW,296,0.0,0.0,94,0.00,,,0.00,Wunderground v.1.15,2013-02-27 06:50:00,
2013-02-27 00:55:00,38.6,37.0,29.83,WNW,296,0.0,0.0,94,0.00,,,0.00,Wunderground v.1.15,2013-02-27 06:55:00,
2013-02-27 01:00:00,38.5,36.9,29.83,WNW,296,0.0,0.0,94,0.00,,,0.00,Wunderground v.1.15,2013-02-27 07:00:00,
2013-02-27 01:05:00,38.3,36.7,29.83,WNW,296,0.0,0.0,94,0.00,,,0.00,Wunderground v.1.15,2013-02-27 07:05:00,
2013-02-27 01:10:00,38.1,36.5,29.83,WNW,296,0.0,0.0,94,0.00,,,0.00,Wunderground v.1.15,2013-02-27 07:10:00,
2013-02-27 01:15:00,37.9,36.3,29.83,WNW,296,0.0,0.0,94,0.00,,,0.00,Wunderground v.1.15,2013-02-27 07:15:00,
2013-02-27 01:20:00,37.8,36.2,29.83,WNW,296,0.0,0.0,94,0.00,,,0.00,Wunderground v.1.15,2013-02-27 07:20:00,
2013-02-27 01:25:00,37.8,36.2,29.83,WNW,296,0.0,0.0,94,0.00,,,0.00,Wunderground v.1.15,2013-02-27 07:25:00,
2013-02-27 01:30:00,37.7,36.1,29.83,WNW,296,0.0,0.0,94,0.00,,,0.00,Wunderground v.1.15,2013-02-27 07:30:00,
2013-02-27 01:35:00,37.7,36.1,29.83,WNW,296,0.0,0.0,94,0.00,,,0.00,Wunderground v.1.15,2013-02-27 07:35:00,
2013-02-27 01:40:00,37.7,36.1,29.83,WNW,296,0.0,0.0,94,0.00,,,0.00,Wunderground v.1.15,2013-02-27 07:40:00,
2013-02-27 01:45:00,37.6,36.0,29.83,WNW,296,0.0,0.0,94,0.00,,,0.00,Wunderground v.1.15,2013-02-27 07:45:00,
2013-02-27 01:50:00,37.5,35.9,29.83,WNW,296,0.0,0.0,94,0.00,,,0.00,Wunderground v.1.15,2013-02-27 07:50:00,
2013-02-27 01:55:00,37.4,35.8,29.83,WNW,296,0.0,0.0,94,0.00,,,0.00,Wunderground v.1.15,2013-02-27 07:55:00,
2013-02-27 02:00:00,37.5,35.9,29.83,WNW,296,0.0,0.0,94,0.00,,,0.00,Wunderground v.1.15,2013-02-27 08:00:00,
2013-02-27 02:05:00,37.5,35.9,29.83,WNW,296,0.0,0.0,94,0.00,,,0.00,Wunderground v.1.15,2013-02-27 08:05:00,
2013-02-27 02:10:00,37.7,36.1,29.83,WNW,296,0.0,0.0,94,0.00,,,0.00,Wunderground v.1.15,2013-02-27 08:10:00,
2013-02-27 02:15:00,37.7,36.1,29.83,WNW,296,0.0,0.0,94,0.00,,,0.00,Wunderground v.1.15,2013-02-27 08:15:00,
2013-02-27 02:20:00,37.7,36.4,29.83,WNW,296,0.0,0.0,95,0.00,,,0.00,Wunderground v.1.15,2013-02-27 08:20:00,
2013-02-27 02:25:00,37.6,36.0,29.83,WNW,296,0.0,0.0,94,0.00,,,0.00,Wunderground v.1.15,2013-02-27 08:25:00,
2013-02-27 02:30:00,37.4,35.8,29.83,WNW,296,0.0,0.0,94,0.00,,,0.00,Wunderground v.1.15,2013-02-27 08:30:00,
2013-02-27 02:35:00,37.3,35.7,29.83,WNW,296,0.0,0.0,94,0.00,,,0.00,Wunderground v.1.15,2013-02-27 08:35:00,
2013-02-27 02:40:00,37.3,35.7,29.83,WNW,296,0.0,0.0,94,0.00,,,0.00,Wunderground v.1.15,2013-02-27 08:40:00,
2013-02-27 02:45:00,37.5,36.2,29.83,WNW,296,0.0,0.0,95,0.00,,,0.00,Wunderground v.1.15,2013-02-27 08:45:00,
2013-02-27 02:50:00,37.8,36.5,29.82,WNW,296,0.0,0.0,95,0.00,,,0.00,Wunderground v.1.15,2013-02-27 08:50:00,
2013-02-27 02:55:00,37.9,36.6,29.82,WNW,296,0.0,0.0,95,0.00,,,0.00,Wunderground v.1.15,2013-02-27 08:55:00,
2013-02-27 03:00:00,38.0,36.7,29.82,WNW,296,0.0,0.0,95,0.00,,,0.00,Wunderground v.1.15,2013-02-27 09:00:00,
2013-02-27 03:10:00,37.9,36.6,29.82,WNW,296,0.0,0.0,95,0.00,,,0.00,Wunderground v.1.15,2013-02-27 09:10:00,
2013-02-27 03:15:00,37.9,36.6,29.82,WNW,296,0.0,0.0,95,0.00,,,0.00,Wunderground v.1.15,2013-02-27 09:15:00,
2013-02-27 03:20:00,37.9,36.6,29.81,WNW,296,0.0,0.0,95,0.00,,,0.00,Wunderground v.1.15,2013-02-27 09:20:00,
2013-02-27 03:25:00,37.9,36.6,29.81,WNW,296,0.0,0.0,95,0.00,,,0.00,Wunderground v.1.15,2013-02-27 09:25:00,
2013-02-27 03:30:00,37.8,36.5,29.81,WNW,296,0.0,0.0,95,0.00,,,0.00,Wunderground v.1.15,2013-02-27 09:30:00,
2013-02-27 03:35:00,37.8,36.5,29.82,WNW,296,0.0,0.0,95,0.00,,,0.00,Wunderground v.1.15,2013-02-27 09:35:00,
2013-02-27 03:40:00,37.7,36.4,29.82,WNW,296,0.0,0.0,95,0.00,,,0.00,Wunderground v.1.15,2013-02-27 09:40:00,
2013-02-27 03:45:00,37.7,36.4,29.82,WNW,296,0.0,0.0,95,0.00,,,0.00,Wunderground v.1.15,2013-02-27 09:45:00,
2013-02-27 03:50:00,37.5,36.2,29.81,WNW,296,0.0,0.0,95,0.00,,,0.00,Wunderground v.1.15,2013-02-27 09:50:00,
2013-02-27 03:55:00,37.4,36.1,29.81,WNW,296,0.0,0.0,95,0.00,,,0.00,Wunderground v.1.15,2013-02-27 09:55:00,
2013-02-27 04:00:00,37.3,36.0,29.81,WNW,296,0.0,0.0,95,0.00,,,0.00,Wunderground v.1.15,2013-02-27 10:00:00,
2013-02-27 04:05:00,37.2,35.9,29.82,WNW,296,0.0,0.0,95,0.00,,,0.00,Wunderground v.1.15,2013-02-27 10:05:00,
2013-02-27 04:10:00,37.3,36.0,29.82,WNW,296,0.0,0.0,95,0.00,,,0.00,Wunderground v.1.15,2013-02-27 10:10:00,
2013-02-27 04:15:00,37.3,36.0,29.82,WNW,296,0.0,0.0,95,0.00,,,0.00,Wunderground v.1.15,2013-02-27 10:15:00,
2013-02-27 04:20:00,37.3,36.0,29.82,WNW,296,0.0,0.0,95,0.00,,,0.00,Wunderground v.1.15,2013-02-27 10:20:00,
2013-02-27 04:25:00,37.3,36.0,29.82,WNW,296,0.0,0.0,95,0.00,,,0.00,Wunderground v.1.15,2013-02-27 10:25:00,
2013-02-27 04:30:00,37.4,36.1,29.82,WNW,296,0.0,0.0,95,0.00,,,0.00,Wunderground v.1.15,2013-02-27 10:30:00,
2013-02-27 04:35:00,37.4,36.1,29.83,WNW,296,0.0,0.0,95,0.00,,,0.00,Wunderground v.1.15,2013-02-27 10:35:00,
2013-02-27 04:40:00,37.3,36.0,29.83,WNW,296,0.0,0.0,95,0.00,,,0.00,Wunderground v.1.15,2013-02-27 10:40:00,
2013-02-27 04:45:00,37.4,36.1,29.83,WNW,296,0.0,0.0,95,0.00,,,0.00,Wunderground v.1.15,2013-02-27 10:45:00,
2013-02-27 04:50:00,37.4,36.1,29.83,WNW,296,0.0,0.0,95,0.00,,,0.00,Wunderground v.1.15,2013-02-27 10:50:00,
2013-02-27 04:55:00,37.3,36.0,29.83,WNW,296,0.0,0.0,95,0.00,,,0.00,Wunderground v.1.15,2013-02-27 10:55:00,
2013-02-27 05:00:00,37.3,36.0,29.83,WNW,296,0.0,0.0,95,0.00,,,0.00,Wunderground v.1.15,2013-02-27 11:00:00,
2013-02-27 05:05:00,37.5,36.2,29.83,WNW,296,0.0,0.0,95,0.00,,,0.00,Wunderground v.1.15,2013-02-27 11:05:00,
2013-02-27 05:10:00,37.7,36.4,29.83,WNW,296,0.0,0.0,95,0.00,,,0.00,Wunderground v.1.15,2013-02-27 11:10:00,
2013-02-27 05:15:00,37.8,36.5,29.83,WNW,296,0.0,0.0,95,0.00,,,0.00,Wunderground v.1.15,2013-02-27 11:15:00,
2013-02-27 05:20:00,37.9,36.6,29.83,WNW,296,0.0,0.0,95,0.00,,,0.00,Wunderground v.1.15,2013-02-27 11:20:00,
2013-02-27 05:25:00,37.9,36.6,29.83,WNW,296,0.0,0.0,95,0.00,,,0.00,Wunderground v.1.15,2013-02-27 11:25:00,
2013-02-27 05:35:00,37.8,36.5,29.83,WNW,296,0.0,0.0,95,0.00,,,0.00,Wunderground v.1.15,2013-02-27 11:35:00,
2013-02-27 05:40:00,37.8,36.5,29.83,WNW,296,0.0,0.0,95,0.00,,,0.00,Wunderground v.1.15,2013-02-27 11:40:00,
2013-02-27 05:45:00,37.8,36.5,29.83,WNW,296,0.0,0.0,95,0.00,,,0.00,Wunderground v.1.15,2013-02-27 11:45:00,
2013-02-27 05:50:00,37.8,36.5,29.83,WNW,296,0.0,0.0,95,0.00,,,0.00,Wunderground v.1.15,2013-02-27 11:50:00,
2013-02-27 05:55:00,37.8,36.5,29.83,WNW,296,0.0,0.0,95,0.00,,,0.00,Wunderground v.1.15,2013-02-27 11:55:00,
2013-02-27 06:00:00,37.9,36.6,29.83,WNW,296,0.0,0.0,95,0.00,,,0.00,Wunderground v.1.15,2013-02-27 12:00:00,
2013-02-27 06:05:00,37.8,36.5,29.83,WNW,296,0.0,0.0,95,0.00,,,0.00,Wunderground v.1.15,2013-02-27 12:05:00,
2013-02-27 06:10:00,37.8,36.5,29.83,WNW,296,0.0,0.0,95,0.00,,,0.00,Wunderground v.1.15,2013-02-27 12:10:00,
2013-02-27 06:15:00,37.7,36.4,29.83,WNW,296,0.0,0.0,95,0.00,,,0.00,Wunderground v.1.15,2013-02-27 12:15:00,
2013-02-27 06:20:00,37.7,36.4,29.84,WNW,296,0.0,0.0,95,0.00,,,0.00,Wunderground v.1.15,2013-02-27 12:20:00,
2013-02-27 06:25:00,37.6,36.3,29.84,WNW,296,0.0,0.0,95,0.00,,,0.00,Wunderground v.1.15,2013-02-27 12:25:00,
2013-02-27 06:30:00,37.5,36.2,29.84,WNW,296,0.0,0.0,95,0.00,,,0.00,Wunderground v.1.15,2013-02-27 12:30:00,
2013-02-27 06:40:00,37.4,36.1,29.84,SSE,155,0.0,0.0,95,0.00,,,0.00,Wunderground v.1.15,2013-02-27 12:40:00,
2013-02-27 06:45:00,37.3,36.0,29.84,SSE,155,0.0,0.0,95,0.00,,,0.00,Wunderground v.1.15,2013-02-27 12:45:00,
2013-02-27 06:50:00,37.3,36.0,29.85,SSE,155,0.0,0.0,95,0.00,,,0.00,Wunderground v.1.15,2013-02-27 12:50:00,
2013-02-27 06:55:00,37.2,35.9,29.85,SSE,155,0.0,0.0,95,0.00,,,0.00,Wunderground v.1.15,2013-02-27 12:55:00,
2013-02-27 07:00:00,37.1,35.8,29.85,SSE,155,0.0,0.0,95,0.00,,,0.00,Wunderground v.1.15,2013-02-27 13:00:00,
2013-02-27 07:05:00,37.1,35.8,29.85,SSE,155,0.0,0.0,95,0.00,,,0.00,Wunderground v.1.15,2013-02-27 13:05:00,
2013-02-27 07:10:00,37.1,35.8,29.85,SSE,155,0.0,0.0,95,0.00,,,0.00,Wunderground v.1.15,2013-02-27 13:10:00,
2013-02-27 07:20:00,37.1,35.8,29.86,SSE,155,0.0,0.0,95,0.00,,,0.00,Wunderground v.1.15,2013-02-27 13:20:00,
2013-02-27 07:25:00,37.4,36.1,29.86,SSE,155,0.0,0.0,95,0.00,,,0.00,Wunderground v.1.15,2013-02-27 13:25:00,
2013-02-27 07:30:00,37.8,36.8,29.86,SSE,155,0.0,0.0,96,0.00,,,0.00,Wunderground v.1.15,2013-02-27 13:30:00,
2013-02-27 07:35:00,38.3,37.3,29.87,SSE,155,0.0,0.0,96,0.00,,,0.00,Wunderground v.1.15,2013-02-27 13:35:00,
2013-02-27 07:40:00,38.8,37.8,29.87,SSE,155,0.0,0.0,96,0.00,,,0.00,Wunderground v.1.15,2013-02-27 13:40:00,
2013-02-27 07:45:00,39.4,38.4,29.87,SSE,155,0.0,0.0,96,0.00,,,0.00,Wunderground v.1.15,2013-02-27 13:45:00,
2013-02-27 07:50:00,40.2,39.2,29.88,SSE,155,0.0,0.0,96,0.00,,,0.00,Wunderground v.1.15,2013-02-27 13:50:00,
2013-02-27 07:55:00,40.8,39.7,29.88,SSE,155,0.0,0.0,96,0.00,,,0.00,Wunderground v.1.15,2013-02-27 13:55:00,
2013-02-27 08:00:00,41.2,40.1,29.88,SSE,155,0.0,0.0,96,0.00,,,0.00,Wunderground v.1.15,2013-02-27 14:00:00,
2013-02-27 08:05:00,41.6,40.5,29.89,SSE,155,0.0,0.0,96,0.00,,,0.00,Wunderground v.1.15,2013-02-27 14:05:00,
2013-02-27 08:10:00,42.1,41.0,29.89,SSE,155,0.0,0.0,96,0.00,,,0.00,Wunderground v.1.15,2013-02-27 14:10:00,
2013-02-27 08:15:00,42.6,41.5,29.89,SSE,155,0.0,0.0,96,0.00,,,0.00,Wunderground v.1.15,2013-02-27 14:15:00,
2013-02-27 08:20:00,43.2,42.1,29.89,SSE,155,0.0,0.0,96,0.00,,,0.00,Wunderground v.1.15,2013-02-27 14:20:00,
2013-02-27 08:25:00,43.8,42.7,29.89,SSE,155,0.0,0.0,96,0.00,,,0.00,Wunderground v.1.15,2013-02-27 14:25:00,
2013-02-27 08:30:00,44.3,43.2,29.89,SSE,156,0.0,0.0,96,0.00,,,0.00,Wunderground v.1.15,2013-02-27 14:30:00,
2013-02-27 08:35:00,45.1,44.0,29.90,SSE,156,1.0,2.0,96,0.00,,,0.00,Wunderground v.1.15,2013-02-27 14:35:00,
2013-02-27 08:40:00,45.8,44.7,29.90,WSW,248,1.0,1.0,96,0.00,,,0.00,Wunderground v.1.15,2013-02-27 14:40:00,
2013-02-27 08:45:00,46.8,45.7,29.90,WSW,248,1.0,1.0,96,0.00,,,0.00,Wunderground v.1.15,2013-02-27 14:45:00,
2013-02-27 08:50:00,47.7,45.8,29.90,South,171,1.0,3.0,93,0.00,,,0.00,Wunderground v.1.15,2013-02-27 14:50:00,
2013-02-27 08:55:00,48.6,44.6,29.90,South,183,1.0,3.0,86,0.00,,,0.00,Wunderground v.1.15,2013-02-27 14:55:00,
2013-02-27 09:00:00,49.5,44.2,29.90,South,184,1.0,2.0,82,0.00,,,0.00,Wunderground v.1.15,2013-02-27 15:00:00,
2013-02-27 09:05:00,50.3,44.4,29.90,South,175,1.0,2.0,80,0.00,,,0.00,Wunderground v.1.15,2013-02-27 15:05:00,
2013-02-27 09:10:00,51.0,43.7,29.90,WSW,242,1.0,1.0,76,0.00,,,0.00,Wunderground v.1.15,2013-02-27 15:10:00,
2013-02-27 09:15:00,51.9,44.6,29.90,SSE,153,1.0,2.0,76,0.00,,,0.00,Wunderground v.1.15,2013-02-27 15:15:00,
2013-02-27 09:20:00,52.9,44.1,29.90,SSE,152,0.0,1.0,72,0.00,,,0.00,Wunderground v.1.15,2013-02-27 15:20:00,
2013-02-27 09:25:00,53.5,43.2,29.90,South,179,1.0,1.0,68,0.00,,,0.00,Wunderground v.1.15,2013-02-27 15:25:00,
2013-02-27 09:30:00,53.8,43.1,29.90,WSW,253,1.0,1.0,67,0.00,,,0.00,Wunderground v.1.15,2013-02-27 15:30:00,
2013-02-27 09:35:00,54.3,42.0,29.91,SW,234,1.0,1.0,63,0.00,,,0.00,Wunderground v.1.15,2013-02-27 15:35:00,
2013-02-27 09:40:00,54.7,42.3,29.91,West,269,1.0,1.0,63,0.00,,,0.00,Wunderground v.1.15,2013-02-27 15:40:00,
2013-02-27 09:45:00,55.2,42.0,29.91,SW,215,2.0,2.0,61,0.00,,,0.00,Wunderground v.1.15,2013-02-27 15:45:00,
2013-02-27 09:50:00,55.5,41.4,29.91,West,277,2.0,2.0,59,0.00,,,0.00,Wunderground v.1.15,2013-02-27 15:50:00,
2013-02-27 09:55:00,56.0,41.9,29.91,SSW,212,3.0,7.0,59,0.00,,,0.00,Wunderground v.1.15,2013-02-27 15:55:00,
2013-02-27 10:00:00,56.2,40.2,29.91,West,276,4.0,5.0,55,0.00,,,0.00,Wunderground v.1.15,2013-02-27 16:00:00,
2013-02-27 10:05:00,56.2,41.6,29.92,West,271,5.0,5.0,58,0.00,,,0.00,Wunderground v.1.15,2013-02-27 16:05:00,
2013-02-27 10:10:00,57.1,42.9,29.92,SSW,208,4.0,5.0,59,0.00,,,0.00,Wunderground v.1.15,2013-02-27 16:10:00,
2013-02-27 10:15:00,57.3,40.8,29.92,West,271,4.0,5.0,54,0.00,,,0.00,Wunderground v.1.15,2013-02-27 16:15:00,
2013-02-27 10:20:00,57.4,41.4,29.91,West,281,4.0,4.0,55,0.00,,,0.00,Wunderground v.1.15,2013-02-27 16:20:00,
2013-02-27 10:25:00,58.1,42.5,29.91,SW,226,4.0,5.0,56,0.00,,,0.00,Wunderground v.1.15,2013-02-27 16:25:00,
2013-02-27 10:46:00,58.5,41.4,29.92,SW,228,5.0,6.0,53,0.00,,,0.00,Wunderground v.1.15,2013-02-27 16:46:00,
2013-02-27 10:55:00,59.8,41.6,29.91,WSW,241,4.0,4.0,51,0.00,,,0.00,Wunderground v.1.15,2013-02-27 16:55:00,
2013-02-27 11:00:00,60.3,41.6,29.91,SSW,203,3.0,3.0,50,0.00,,,0.00,Wunderground v.1.15,2013-02-27 17:00:00,
2013-02-27 11:05:00,60.3,40.0,29.91,West,267,4.0,4.0,47,0.00,,,0.00,Wunderground v.1.15,2013-02-27 17:05:00,
2013-02-27 11:10:00,60.4,40.6,29.91,West,265,5.0,5.0,48,0.00,,,0.00,Wunderground v.1.15,2013-02-27 17:10:00,
2013-02-27 11:15:00,60.4,41.1,29.91,WNW,292,5.0,5.0,49,0.00,,,0.00,Wunderground v.1.15,2013-02-27 17:15:00,
2013-02-27 11:20:00,60.7,41.9,29.91,SW,227,4.0,5.0,50,0.00,,,0.00,Wunderground v.1.15,2013-02-27 17:20:00,
2013-02-27 11:25:00,60.7,40.9,29.91,SSE,164,5.0,5.0,48,0.00,,,0.00,Wunderground v.1.15,2013-02-27 17:25:00,
2013-02-27 11:30:00,60.7,41.4,29.91,SW,230,6.0,9.0,49,0.00,,,0.00,Wunderground v.1.15,2013-02-27 17:30:00,
2013-02-27 11:35:00,60.7,41.9,29.89,WNW,292,5.0,9.0,50,0.00,,,0.00,Wunderground v.1.15,2013-02-27 17:35:00,
2013-02-27 11:40:00,61.1,41.8,29.89,WSW,256,5.0,5.0,49,0.00,,,0.00,Wunderground v.1.15,2013-02-27 17:40:00,
2013-02-27 11:45:00,61.8,41.3,29.89,SW,221,5.0,7.0,47,0.00,,,0.00,Wunderground v.1.15,2013-02-27 17:45:00,
2013-02-27 11:50:00,62.3,40.7,29.89,West,272,5.0,5.0,45,0.00,,,0.00,Wunderground v.1.15,2013-02-27 17:50:00,
2013-02-27 11:55:00,62.4,40.8,29.89,SSW,207,6.0,10.0,45,0.00,,,0.00,Wunderground v.1.15,2013-02-27 17:55:00,
2013-02-27 12:00:00,62.5,40.9,29.89,West,267,6.0,6.0,45,0.00,,,0.00,Wunderground v.1.15,2013-02-27 18:00:00,
2013-02-27 12:05:00,62.9,40.0,29.89,SSW,212,5.0,7.0,43,0.00,,,0.00,Wunderground v.1.15,2013-02-27 18:05:00,
2013-02-27 12:10:00,63.3,40.4,29.89,SE,140,5.0,5.0,43,0.00,,,0.00,Wunderground v.1.15,2013-02-27 18:10:00,
2013-02-27 12:15:00,63.1,39.6,29.89,SSW,211,5.0,6.0,42,0.00,,,0.00,Wunderground v.1.15,2013-02-27 18:15:00,
2013-02-27 12:20:00,63.2,39.7,29.88,WSW,238,5.0,5.0,42,0.00,,,0.00,Wunderground v.1.15,2013-02-27 18:20:00,
2013-02-27 12:25:00,63.8,40.3,29.88,WNW,290,5.0,7.0,42,0.00,,,0.00,Wunderground v.1.15,2013-02-27 18:25:00,
2013-02-27 12:30:00,63.7,40.8,29.88,WNW,283,4.0,4.0,43,0.00,,,0.00,Wunderground v.1.15,2013-02-27 18:30:00,
2013-02-27 12:35:00,64.2,40.6,29.87,SW,227,4.0,4.0,42,0.00,,,0.00,Wunderground v.1.15,2013-02-27 18:35:00,
2013-02-27 12:40:00,64.5,40.3,29.87,South,182,4.0,5.0,41,0.00,,,0.00,Wunderground v.1.15,2013-02-27 18:40:00,
2013-02-27 12:45:00,64.6,41.0,29.87,WNW,303,5.0,6.0,42,0.00,,,0.00,Wunderground v.1.15,2013-02-27 18:45:00,
2013-02-27 12:50:00,64.7,39.2,29.86,WNW,284,6.0,6.0,39,0.00,,,0.00,Wunderground v.1.15,2013-02-27 18:50:00,
2013-02-27 12:55:00,65.0,39.4,29.86,WNW,283,5.0,6.0,39,0.00,,,0.00,Wunderground v.1.15,2013-02-27 18:55:00,
2013-02-27 13:00:00,65.2,38.9,29.86,WSW,250,4.0,5.0,38,0.00,,,0.00,Wunderground v.1.15,2013-02-27 19:00:00,
2013-02-27 13:05:00,65.0,39.4,29.86,WNW,286,5.0,5.0,39,0.00,,,0.00,Wunderground v.1.15,2013-02-27 19:05:00,
2013-02-27 13:10:00,65.3,39.7,29.86,West,273,4.0,4.0,39,0.00,,,0.00,Wunderground v.1.15,2013-02-27 19:10:00,
2013-02-27 13:15:00,65.9,40.2,29.86,WNW,288,5.0,5.0,39,0.00,,,0.00,Wunderground v.1.15,2013-02-27 19:15:00,
2013-02-27 13:20:00,65.9,38.9,29.85,West,263,4.0,4.0,37,0.00,,,0.00,Wunderground v.1.15,2013-02-27 19:20:00,
2013-02-27 13:25:00,65.5,38.5,29.85,WNW,300,4.0,5.0,37,0.00,,,0.00,Wunderground v.1.15,2013-02-27 19:25:00,
2013-02-27 13:30:00,65.8,39.5,29.85,West,271,4.0,4.0,38,0.00,,,0.00,Wunderground v.1.15,2013-02-27 19:30:00,
2013-02-27 13:35:00,66.0,40.3,29.84,West,265,4.0,4.0,39,0.00,,,0.00,Wunderground v.1.15,2013-02-27 19:35:00,
2013-02-27 13:40:00,65.9,39.6,29.84,SW,229,4.0,4.0,38,0.00,,,0.00,Wunderground v.1.15,2013-02-27 19:40:00,
2013-02-27 13:45:00,66.2,39.1,29.84,SW,223,4.0,10.0,37,0.00,,,0.00,Wunderground v.1.15,2013-02-27 19:45:00,
2013-02-27 13:50:00,66.1,39.1,29.83,SSE,164,5.0,5.0,37,0.00,,,0.00,Wunderground v.1.15,2013-02-27 19:50:00,
2013-02-27 14:00:00,66.5,40.1,29.83,WSW,256,4.0,4.0,38,0.00,,,0.00,Wunderground v.1.15,2013-02-27 20:00:00,
2013-02-27 14:05:00,66.3,38.5,29.83,SSW,194,5.0,5.0,36,0.00,,,0.00,Wunderground v.1.15,2013-02-27 20:05:00,
2013-02-27 14:10:00,66.8,39.7,29.83,WNW,287,4.0,4.0,37,0.00,,,0.00,Wunderground v.1.15,2013-02-27 20:10:00,
2013-02-27 14:15:00,67.1,39.2,29.83,West,267,4.0,9.0,36,0.00,,,0.00,Wunderground v.1.15,2013-02-27 20:15:00,
2013-02-27 14:20:00,67.3,40.1,29.83,SW,218,3.0,3.0,37,0.00,,,0.00,Wunderground v.1.15,2013-02-27 20:20:00,
2013-02-27 14:25:00,68.2,39.5,29.83,South,180,2.0,3.0,35,0.00,,,0.00,Wunderground v.1.15,2013-02-27 20:25:00,
2013-02-27 14:30:00,68.3,40.3,29.83,SW,222,3.0,5.0,36,0.00,,,0.00,Wunderground v.1.15,2013-02-27 20:30:00,
2013-02-27 14:35:00,67.7,39.8,29.83,WNW,283,5.0,5.0,36,0.00,,,0.00,Wunderground v.1.15,2013-02-27 20:35:00,
2013-02-27 14:40:00,68.1,40.8,29.83,WNW,288,4.0,4.0,37,0.00,,,0.00,Wunderground v.1.15,2013-02-27 20:40:00,
2013-02-27 14:45:00,68.4,38.2,29.83,SSE,163,2.0,4.0,33,0.00,,,0.00,Wunderground v.1.15,2013-02-27 20:45:00,
2013-02-27 14:50:00,68.4,39.7,29.82,West,268,4.0,4.0,35,0.00,,,0.00,Wunderground v.1.15,2013-02-27 20:50:00,
2013-02-27 14:55:00,68.6,38.3,29.82,WSW,257,4.0,7.0,33,0.00,,,0.00,Wunderground v.1.15,2013-02-27 20:55:00,
2013-02-27 15:00:00,68.3,39.6,29.82,WNW,294,4.0,4.0,35,0.00,,,0.00,Wunderground v.1.15,2013-02-27 21:00:00,
2013-02-27 15:05:00,68.8,40.0,29.82,WNW,283,4.0,9.0,35,0.00,,,0.00,Wunderground v.1.15,2013-02-27 21:05:00,
2013-02-27 15:15:00,68.0,38.6,29.82,SW,225,6.0,6.0,34,0.00,,,0.00,Wunderground v.1.15,2013-02-27 21:15:00,
2013-02-27 15:20:00,68.1,38.7,29.82,West,278,4.0,6.0,34,0.00,,,0.00,Wunderground v.1.15,2013-02-27 21:20:00,
2013-02-27 15:25:00,68.2,38.0,29.82,SW,236,4.0,6.0,33,0.00,,,0.00,Wunderground v.1.15,2013-02-27 21:25:00,
2013-02-27 15:30:00,68.4,38.2,29.82,WSW,256,5.0,5.0,33,0.00,,,0.00,Wunderground v.1.15,2013-02-27 21:30:00,
2013-02-27 15:35:00,68.3,39.6,29.82,SW,227,5.0,6.0,35,0.00,,,0.00,Wunderground v.1.15,2013-02-27 21:35:00,
2013-02-27 15:40:00,68.5,37.5,29.82,West,261,5.0,5.0,32,0.00,,,0.00,Wunderground v.1.15,2013-02-27 21:40:00,
2013-02-27 15:45:00,68.5,38.2,29.82,SW,225,4.0,6.0,33,0.00,,,0.00,Wunderground v.1.15,2013-02-27 21:45:00,
2013-02-27 15:50:00,68.5,38.2,29.82,West,267,5.0,14.0,33,0.00,,,0.00,Wunderground v.1.15,2013-02-27 21:50:00,
2013-02-27 15:55:00,68.2,37.2,29.82,SW,230,5.0,14.0,32,0.00,,,0.00,Wunderground v.1.15,2013-02-27 21:55:00,
2013-02-27 16:00:00,68.0,38.6,29.82,WSW,240,5.0,5.0,34,0.00,,,0.00,Wunderground v.1.15,2013-02-27 22:00:00,
2013-02-27 16:05:00,68.2,38.7,29.82,WNW,284,4.0,14.0,34,0.00,,,0.00,Wunderground v.1.15,2013-02-27 22:05:00,
2013-02-27 16:15:00,68.2,38.7,29.82,WNW,294,3.0,14.0,34,0.00,,,0.00,Wunderground v.1.15,2013-02-27 22:15:00,
2013-02-27 16:20:00,68.4,38.9,29.83,SW,222,3.0,3.0,34,0.00,,,0.00,Wunderground v.1.15,2013-02-27 22:20:00,
2013-02-27 16:25:00,68.3,38.1,29.83,West,264,3.0,4.0,33,0.00,,,0.00,Wunderground v.1.15,2013-02-27 22:25:00,
2013-02-27 16:30:00,68.0,38.6,29.83,West,275,3.0,14.0,34,0.00,,,0.00,Wunderground v.1.15,2013-02-27 22:30:00,
2013-02-27 16:35:00,67.5,38.9,29.82,WNW,284,4.0,14.0,35,0.00,,,0.00,Wunderground v.1.15,2013-02-27 22:35:00,
2013-02-27 16:40:00,67.1,38.5,29.82,West,273,3.0,14.0,35,0.00,,,0.00,Wunderground v.1.15,2013-02-27 22:40:00,
2013-02-27 16:45:00,67.0,39.1,29.82,West,270,3.0,14.0,36,0.00,,,0.00,Wunderground v.1.15,2013-02-27 22:45:00,
2013-02-27 16:50:00,66.7,38.2,29.83,WNW,291,3.0,14.0,35,0.00,,,0.00,Wunderground v.1.15,2013-02-27 22:50:00,
2013-02-27 16:55:00,66.4,37.9,29.83,NW,307,3.0,14.0,35,0.00,,,0.00,Wunderground v.1.15,2013-02-27 22:55:00,
2013-02-27 17:00:00,66.3,38.5,29.83,West,263,3.0,14.0,36,0.00,,,0.00,Wunderground v.1.15,2013-02-27 23:00:00,
2013-02-27 17:05:00,66.1,37.6,29.83,West,267,3.0,14.0,35,0.00,,,0.00,Wunderground v.1.15,2013-02-27 23:05:00,
2013-02-27 17:10:00,65.8,38.1,29.83,West,280,3.0,14.0,36,0.00,,,0.00,Wunderground v.1.15,2013-02-27 23:10:00,
2013-02-27 17:15:00,65.5,38.5,29.83,WNW,286,3.0,14.0,37,0.00,,,0.00,Wunderground v.1.15,2013-02-27 23:15:00,
2013-02-27 17:20:00,65.1,38.8,29.83,WSW,252,3.0,14.0,38,0.00,,,0.00,Wunderground v.1.15,2013-02-27 23:20:00,
2013-02-27 17:25:00,64.9,38.7,29.83,WNW,302,2.0,14.0,38,0.00,,,0.00,Wunderground v.1.15,2013-02-27 23:25:00,
2013-02-27 17:30:00,64.6,39.1,29.83,North,5,1.0,1.0,39,0.00,,,0.00,Wunderground v.1.15,2013-02-27 23:30:00,
2013-02-27 17:35:00,64.2,39.4,29.83,North,5,1.0,14.0,40,0.00,,,0.00,Wunderground v.1.15,2013-02-27 23:35:00,
2013-02-27 17:40:00,63.9,39.7,29.83,North,355,0.0,14.0,41,0.00,,,0.00,Wunderground v.1.15,2013-02-27 23:40:00,
2013-02-27 17:50:00,63.0,40.1,29.83,North,355,0.0,14.0,43,0.00,,,0.00,Wunderground v.1.15,2013-02-27 23:50:00,
2013-02-27 17:55:00,62.3,41.8,29.83,North,355,0.0,14.0,47,0.00,,,0.00,Wunderground v.1.15,2013-02-27 23:55:00,
2013-02-27 18:00:00,61.6,41.2,29.83,North,355,0.0,14.0,47,0.00,,,0.00,Wunderground v.1.15,2013-02-28 00:00:00,
2013-02-27 18:05:00,61.1,40.7,29.83,North,355,0.0,14.0,47,0.00,,,0.00,Wunderground v.1.15,2013-02-28 00:05:00,
2013-02-27 18:10:00,60.7,42.5,29.83,North,355,0.0,14.0,51,0.00,,,0.00,Wunderground v.1.15,2013-02-28 00:10:00,
2013-02-27 18:20:00,59.8,41.6,29.84,North,9,0.0,14.0,51,0.00,,,0.00,Wunderground v.1.15,2013-02-28 00:20:00,
2013-02-27 18:30:00,59.2,42.1,29.84,North,9,0.0,14.0,53,0.00,,,0.00,Wunderground v.1.15,2013-02-28 00:30:00,
2013-02-27 18:35:00,58.9,41.8,29.85,North,9,0.0,14.0,53,0.00,,,0.00,Wunderground v.1.15,2013-02-28 00:35:00,
2013-02-27 18:40:00,58.7,41.6,29.85,North,9,0.0,14.0,53,0.00,,,0.00,Wunderground v.1.15,2013-02-28 00:40:00,
2013-02-27 18:45:00,58.5,41.4,29.85,North,9,0.0,14.0,53,0.00,,,0.00,Wunderground v.1.15,2013-02-28 00:45:00,
2013-02-27 18:50:00,58.3,41.7,29.86,North,9,0.0,14.0,54,0.00,,,0.00,Wunderground v.1.15,2013-02-28 00:50:00,
2013-02-27 18:55:00,58.0,42.8,29.86,North,9,0.0,14.0,57,0.00,,,0.00,Wunderground v.1.15,2013-02-28 00:55:00,
2013-02-27 19:00:00,57.6,42.5,29.86,North,9,0.0,14.0,57,0.00,,,0.00,Wunderground v.1.15,2013-02-28 01:00:00,
2013-02-27 19:05:00,57.1,43.3,29.86,North,9,0.0,14.0,60,0.00,,,0.00,Wunderground v.1.15,2013-02-28 01:05:00,
2013-02-27 19:10:00,56.6,44.1,29.86,North,9,0.0,14.0,63,0.00,,,0.00,Wunderground v.1.15,2013-02-28 01:10:00,
2013-02-27 19:15:00,56.1,44.5,29.86,North,9,0.0,14.0,65,0.00,,,0.00,Wunderground v.1.15,2013-02-28 01:15:00,
2013-02-27 19:20:00,55.7,43.7,29.86,North,9,0.0,14.0,64,0.00,,,0.00,Wunderground v.1.15,2013-02-28 01:20:00,
2013-02-27 19:25:00,55.5,43.5,29.86,North,9,0.0,14.0,64,0.00,,,0.00,Wunderground v.1.15,2013-02-28 01:25:00,
2013-02-27 19:30:00,55.5,43.1,29.86,North,9,0.0,14.0,63,0.00,,,0.00,Wunderground v.1.15,2013-02-28 01:30:00,
2013-02-27 19:35:00,55.6,42.8,29.87,North,9,0.0,14.0,62,0.00,,,0.00,Wunderground v.1.15,2013-02-28 01:35:00,
2013-02-27 19:40:00,55.9,41.8,29.87,NNE,33,0.0,14.0,59,0.00,,,0.00,Wunderground v.1.15,2013-02-28 01:40:00,
2013-02-27 19:45:00,56.1,42.0,29.87,West,275,0.0,14.0,59,0.00,,,0.00,Wunderground v.1.15,2013-02-28 01:45:00,
2013-02-27 19:50:00,56.6,42.0,29.87,North,360,1.0,14.0,58,0.00,,,0.00,Wunderground v.1.15,2013-02-28 01:50:00,
2013-02-27 19:55:00,56.8,42.2,29.87,NNE,22,1.0,14.0,58,0.00,,,0.00,Wunderground v.1.15,2013-02-28 01:55:00,
2013-02-27 20:00:00,56.8,41.7,29.87,North,349,1.0,1.0,57,0.00,,,0.00,Wunderground v.1.15,2013-02-28 02:00:00,
2013-02-27 20:05:00,56.7,42.1,29.88,North,355,1.0,14.0,58,0.00,,,0.00,Wunderground v.1.15,2013-02-28 02:05:00,
2013-02-27 20:10:00,56.5,41.9,29.88,NNW,342,1.0,14.0,58,0.00,,,0.00,Wunderground v.1.15,2013-02-28 02:10:00,
2013-02-27 20:15:00,56.3,41.7,29.88,NNE,19,1.0,14.0,58,0.00,,,0.00,Wunderground v.1.15,2013-02-28 02:15:00,
2013-02-27 20:20:00,56.2,42.1,29.88,NNW,345,1.0,14.0,59,0.00,,,0.00,Wunderground v.1.15,2013-02-28 02:20:00,
2013-02-27 20:25:00,56.1,42.0,29.88,North,355,1.0,14.0,59,0.00,,,0.00,Wunderground v.1.15,2013-02-28 02:25:00,
2013-02-27 20:30:00,55.9,41.8,29.88,NW,326,1.0,1.0,59,0.00,,,0.00,Wunderground v.1.15,2013-02-28 02:30:00,
2013-02-27 20:35:00,55.8,42.1,29.89,NNE,24,1.0,14.0,60,0.00,,,0.00,Wunderground v.1.15,2013-02-28 02:35:00,
2013-02-27 20:40:00,55.7,42.0,29.89,NW,318,0.0,14.0,60,0.00,,,0.00,Wunderground v.1.15,2013-02-28 02:40:00,
2013-02-27 20:45:00,55.6,41.9,29.89,North,9,0.0,14.0,60,0.00,,,0.00,Wunderground v.1.15,2013-02-28 02:45:00,
2013-02-27 20:50:00,55.5,41.8,29.89,NNE,15,0.0,14.0,60,0.00,,,0.00,Wunderground v.1.15,2013-02-28 02:50:00,
2013-02-27 20:55:00,55.4,41.7,29.89,NNE,25,1.0,14.0,60,0.00,,,0.00,Wunderground v.1.15,2013-02-28 02:55:00,
2013-02-27 21:00:00,55.3,41.6,29.89,NNW,342,1.0,14.0,60,0.00,,,0.00,Wunderground v.1.15,2013-02-28 03:00:00,
2013-02-27 21:05:00,55.1,41.5,29.90,NNW,334,1.0,14.0,60,0.00,,,0.00,Wunderground v.1.15,2013-02-28 03:05:00,
2013-02-27 21:15:00,54.7,41.5,29.90,NNE,31,0.0,14.0,61,0.00,,,0.00,Wunderground v.1.15,2013-02-28 03:15:00,
2013-02-27 21:20:00,54.5,41.3,29.90,NNE,30,0.0,14.0,61,0.00,,,0.00,Wunderground v.1.15,2013-02-28 03:20:00,
2013-02-27 21:25:00,54.3,41.6,29.90,NNE,17,0.0,14.0,62,0.00,,,0.00,Wunderground v.1.15,2013-02-28 03:25:00,
2013-02-27 21:30:00,54.1,41.8,29.90,North,10,0.0,14.0,63,0.00,,,0.00,Wunderground v.1.15,2013-02-28 03:30:00,
2013-02-27 21:35:00,53.8,41.5,29.91,North,9,0.0,14.0,63,0.00,,,0.00,Wunderground v.1.15,2013-02-28 03:35:00,
2013-02-27 21:40:00,53.6,41.3,29.91,North,355,0.0,14.0,63,0.00,,,0.00,Wunderground v.1.15,2013-02-28 03:40:00,
2013-02-27 21:45:00,53.4,41.1,29.91,NNW,346,0.0,14.0,63,0.00,,,0.00,Wunderground v.1.15,2013-02-28 03:45:00,
2013-02-27 21:50:00,53.3,41.4,29.91,NNW,344,0.0,14.0,64,0.00,,,0.00,Wunderground v.1.15,2013-02-28 03:50:00,
2013-02-27 21:55:00,53.2,41.3,29.91,NNW,346,0.0,14.0,64,0.00,,,0.00,Wunderground v.1.15,2013-02-28 03:55:00,
2013-02-27 22:00:00,53.1,41.2,29.91,NNW,331,0.0,14.0,64,0.00,,,0.00,Wunderground v.1.15,2013-02-28 04:00:00,
2013-02-27 22:05:00,53.0,40.7,29.91,WSW,241,0.0,14.0,63,0.00,,,0.00,Wunderground v.1.15,2013-02-28 04:05:00,
2013-02-27 22:10:00,53.0,40.3,29.91,NNE,14,1.0,14.0,62,0.00,,,0.00,Wunderground v.1.15,2013-02-28 04:10:00,
2013-02-27 22:15:00,52.9,39.8,29.91,NNW,329,1.0,14.0,61,0.00,,,0.00,Wunderground v.1.15,2013-02-28 04:15:00,
2013-02-27 22:20:00,52.9,39.8,29.91,NE,38,1.0,1.0,61,0.00,,,0.00,Wunderground v.1.15,2013-02-28 04:20:00,
2013-02-27 22:25:00,52.8,39.3,29.91,NW,319,0.0,14.0,60,0.00,,,0.00,Wunderground v.1.15,2013-02-28 04:25:00,
2013-02-27 22:30:00,52.7,39.2,29.91,West,271,0.0,14.0,60,0.00,,,0.00,Wunderground v.1.15,2013-02-28 04:30:00,
2013-02-27 22:35:00,52.6,39.1,29.91,NW,321,0.0,14.0,60,0.00,,,0.00,Wunderground v.1.15,2013-02-28 04:35:00,
2013-02-27 22:40:00,52.6,39.1,29.91,WSW,245,0.0,14.0,60,0.00,,,0.00,Wunderground v.1.15,2013-02-28 04:40:00,
2013-02-27 22:45:00,52.5,39.0,29.91,WSW,243,1.0,14.0,60,0.00,,,0.00,Wunderground v.1.15,2013-02-28 04:45:00,
2013-02-27 22:50:00,52.4,38.9,29.92,NW,323,1.0,1.0,60,0.00,,,0.00,Wunderground v.1.15,2013-02-28 04:50:00,
2013-02-27 22:55:00,52.4,38.5,29.92,NNE,29,1.0,3.0,59,0.00,,,0.00,Wunderground v.1.15,2013-02-28 04:55:00,
2013-02-27 23:00:00,52.3,38.4,29.92,NNE,13,1.0,1.0,59,0.00,,,0.00,Wunderground v.1.15,2013-02-28 05:00:00,
2013-02-27 23:05:00,52.2,38.3,29.92,ENE,60,1.0,3.0,59,0.00,,,0.00,Wunderground v.1.15,2013-02-28 05:05:00,
2013-02-27 23:10:00,52.0,38.1,29.92,NE,42,1.0,14.0,59,0.00,,,0.00,Wunderground v.1.15,2013-02-28 05:10:00,
2013-02-27 23:15:00,51.8,37.5,29.92,NE,46,1.0,14.0,58,0.00,,,0.00,Wunderground v.1.15,2013-02-28 05:15:00,
2013-02-27 23:20:00,51.5,37.2,29.92,NNE,19,0.0,14.0,58,0.00,,,0.00,Wunderground v.1.15,2013-02-28 05:20:00,
2013-02-27 23:25:00,51.3,37.0,29.92,NNW,330,1.0,14.0,58,0.00,,,0.00,Wunderground v.1.15,2013-02-28 05:25:00,
2013-02-27 23:30:00,51.1,36.8,29.92,NNE,13,1.0,1.0,58,0.00,,,0.00,Wunderground v.1.15,2013-02-28 05:30:00,
2013-02-27 23:35:00,50.8,36.5,29.92,NNW,333,1.0,2.0,58,0.00,,,0.00,Wunderground v.1.15,2013-02-28 05:35:00,
2013-02-27 23:40:00,50.7,36.9,29.92,WNW,295,0.0,14.0,59,0.00,,,0.00,Wunderground v.1.15,2013-02-28 05:40:00,
2013-02-27 23:45:00,50.4,36.2,29.92,WNW,294,0.0,14.0,58,0.00,,,0.00,Wunderground v.1.15,2013-02-28 05:45:00,
2013-02-27 23:50:00,50.1,35.9,29.93,North,360,0.0,14.0,58,0.00,,,0.00,Wunderground v.1.15,2013-02-28 05:50:00,